Theta_e
315 315 315 315 315 315 315 315 316 316 316 317 317 317 317 317 317 317 318 318 318 319 319 320 319 319 319 320 320 321 320 315 313 312 311 315 323 327 329 330 332 332 331 322 318 315 310 308 307 310 309 303 302 301 303 304 305 304 296 293 290 291 292 296 297 298 303 304 306 307 314 312 310 313 316 321 327 327 328 328 330 333 334 336 338 339 340 341
315 315 315 315 315 315 315 315 315 315 316 316 316 317 317 318 317 317 317 318 318 318 319 320 320 319 320 320 320 320 318 314 311 311 311 322 328 330 330 330 331 335 328 317 315 313 309 308 308 308 306 302 307 300 305 300 306 299 296 293 289 293 296 301 305 306 305 306 310 313 316 312 312 313 316 312 313 319 325 326 329 329 332 335 337 338 338 339
315 315 315 315 315 315 315 315 315 315 315 316 316 316 317 317 317 317 317 317 318 318 319 320 320 319 319 319 320 320 316 312 312 311 318 331 331 332 331 332 331 334 320 317 316 313 309 310 310 308 304 301 303 302 303 302 305 300 297 292 292 298 300 304 306 309 310 312 313 312 314 316 314 313 317 311 313 314 321 322 326 327 327 331 334 336 337 338
315 315 315 315 315 315 315 315 315 315 315 315 316 316 316 317 317 317 317 317 317 318 319 319 319 319 319 319 320 318 314 310 308 317 325 331 332 331 330 332 335 332 321 317 315 312 312 312 311 307 304 300 301 303 299 300 301 303 297 294 295 301 299 302 310 311 309 313 315 311 312 315 316 315 314 313 311 313 317 325 327 326 329 331 333 334 336 335
316 315 315 315 315 315 315 315 315 315 315 315 315 315 315 316 316 316 317 317 317 317 318 319 319 319 319 319 320 317 309 299 307 322 324 330 331 329 331 332 334 323 319 316 315 313 312 310 309 306 305 300 302 300 298 301 304 304 298 300 301 303 300 307 309 312 311 314 314 313 313 313 320 315 313 316 311 309 314 318 327 331 332 331 331 333 335 334
315 315 315 315 315 315 315 315 315 315 315 315 315 315 315 315 315 316 316 317 317 317 317 318 319 319 319 319 317 314 308 293 315 320 334 335 334 329 328 329 328 319 318 314 312 313 311 309 306 301 298 298 297 295 299 301 305 296 298 301 304 305 304 308 310 311 312 311 310 310 315 318 313 312 315 315 314 315 320 321 324 333 334 334 334 333 332 332
316 315 315 315 315 315 315 315 315 315 315 315 315 315 315 315 315 316 316 316 316 316 317 318 318 319 318 319 315 313 308 308 319 325 333 335 332 328 326 325 324 320 321 316 314 311 310 307 303 301 300 298 301 299 303 305 306 298 295 301 303 307 306 309 310 312 310 310 309 312 315 313 312 307 314 314 317 321 323 324 324 332 334 335 332 332 332 331
316 315 315 315 315 315 315 315 315 315 315 315 315 315 315 315 315 315 316 316 316 316 316 317 318 319 318 314 312 308 308 309 319 330 336 335 330 327 327 323 321 320 318 317 315 312 311 305 302 303 300 298 300 300 304 303 304 300 297 304 305 307 310 308 308 309 311 311 314 313 308 312 313 311 316 314 318 322 324 324 324 326 328 332 331 331 331 331
316 316 315 315 315 315 315 315 315 315 315 315 315 315 315 315 315 315 315 315 316 316 316 317 317 318 319 313 309 305 304 319 326 329 334 329 328 327 323 319 322 319 318 318 318 316 313 305 306 303 298 300 307 302 304 299 295 303 303 305 306 307 310 308 310 309 310 311 313 310 307 312 314 315 312 317 320 322 324 322 322 325 324 326 325 325 326 328
315 315 315 315 315 315 315 315 315 315 315 315 315 315 315 315 314 315 315 315 316 316 316 316 317 318 314 311 310 301 310 325 326 332 331 328 327 325 322 322 320 319 317 318 318 316 309 306 307 306 308 306 307 302 306 302 295 305 306 306 304 306 307 310 308 309 310 310 312 307 306 311 316 313 302 318 321 324 322 321 321 321 321 322 322 322 325 326
315 315 315 315 315 315 315 315 315 315 315 315 315 315 314 314 314 314 314 315 315 316 316 316 318 317 312 313 306 301 321 322 325 328 327 327 324 322 321 323 321 319 319 318 316 312 311 312 309 307 308 302 305 303 304 304 307 307 306 306 306 306 306 308 310 308 309 309 312 309 306 313 312 311 306 317 322 323 320 321 320 319 320 320 321 323 324 326
315 315 315 315 315 315 315 315 315 315 315 315 315 314 314 314 314 314 314 315 315 316 315 316 318 315 312 309 306 308 324 323 324 326 326 325 323 323 325 325 323 320 319 315 313 318 313 315 310 307 299 307 298 306 304 309 308 306 305 298 302 304 303 306 306 309 311 309 311 310 307 306 309 307 313 318 321 321 320 318 319 318 318 320 322 322 323 325
315 315 315 315 315 315 315 315 315 315 315 314 314 314 314 314 314 314 314 315 316 316 316 317 316 315 312 305 310 319 326 325 324 326 324 325 325 327 327 327 325 324 322 317 314 314 313 310 312 307 309 302 305 297 307 310 308 309 306 300 299 298 297 305 308 309 310 310 311 310 293 296 306 313 315 315 315 318 316 316 318 319 319 320 321 321 323 325
316 315 315 315 315 314 314 315 315 315 315 314 314 314 314 314 314 315 315 314 316 316 316 316 315 313 311 306 316 323 325 327 328 325 323 326 322 322 327 324 325 324 323 317 316 315 315 310 310 313 314 306 301 312 307 307 309 297 303 301 293 291 291 305 308 310 308 312 310 311 293 296 304 313 316 315 317 315 314 315 317 319 320 322 323 322 323 325
315 315 315 315 314 314 314 315 315 315 314 314 314 314 313 313 314 315 315 315 316 316 315 316 315 312 307 310 322 326 337 329 325 324 324 322 319 317 316 318 319 318 318 317 315 316 315 313 314 309 304 312 307 304 298 299 300 300 295 289 294 291 292 302 310 309 304 309 312 305 293 296 303 311 316 315 312 313 314 316 318 319 319 320 322 323 323 324
315 315 315 315 314 314 314 314 314 314 314 314 314 313 313 314 314 315 316 316 316 315 316 311 311 311 307 305 316 333 324 318 320 325 323 322 319 315 316 318 319 320 320 318 319 316 316 316 305 306 308 306 303 296 294 292 292 296 293 290 290 292 292 298 305 309 311 309 309 307 294 299 303 309 317 316 313 312 313 314 316 317 318 320 321 322 323 323
314 314 314 314 314 314 314 314 314 314 314 314 313 313 313 314 315 315 315 317 315 316 313 311 314 312 303 317 324 317 314 318 321 320 319 321 320 317 315 315 316 317 320 318 317 314 315 311 310 308 310 301 299 297 290 284 284 287 293 289 291 291 293 291 300 306 308 308 302 306 300 301 304 312 316 316 313 313 315 315 315 316 317 319 321 322 322 323
314 314 314 314 314 314 314 314 314 314 314 313 312 312 311 314 315 314 314 313 315 314 312 315 313 308 307 317 311 313 318 316 317 319 319 320 321 318 317 316 318 318 315 311 315 311 312 305 307 297 299 299 298 293 287 283 286 286 288 289 290 293 295 293 294 300 308 308 303 303 301 302 306 312 316 317 316 315 315 316 318 318 317 319 320 321 322 323
314 314 314 314 314 313 314 314 314 313 313 312 312 314 316 316 314 312 312 311 310 306 302 306 305 299 300 309 317 318 317 320 319 318 316 317 318 319 319 319 317 312 309 307 307 309 308 303 301 295 292 293 294 296 292 293 297 295 295 291 292 291 291 294 299 307 308 303 301 301 299 302 306 308 312 316 318 315 316 319 319 319 319 319 320 322 321 323
314 313 313 313 313 313 313 313 313 313 313 310 307 308 310 310 307 309 311 312 309 309 307 307 312 312 313 314 314 320 321 320 313 316 317 319 316 315 315 316 314 314 309 300 303 307 311 296 293 293 294 296 299 300 299 300 301 300 299 296 293 294 295 302 304 308 310 304 301 301 302 304 305 307 311 312 316 316 317 317 316 317 318 318 319 321 322 323
313 314 313 313 313 313 313 313 313 312 312 309 306 308 304 305 300 298 303 309 312 314 311 311 312 312 311 316 317 316 312 312 315 314 317 322 316 312 308 312 308 300 304 307 303 310 305 294 294 298 300 300 301 302 303 303 304 301 298 297 296 296 295 303 304 308 311 303 299 302 303 304 305 307 310 312 313 314 315 316 315 316 317 318 318 319 321 324
313 313 313 313 313 313 312 312 312 312 311 308 306 309 310 311 313 311 308 303 309 313 313 313 315 313 318 318 320 320 314 308 309 313 317 318 312 307 307 307 304 300 306 306 302 296 294 294 298 302 304 305 304 304 304 303 301 301 297 295 295 296 300 304 307 310 310 303 297 302 300 302 307 310 311 311 312 314 316 316 317 318 316 317 319 319 322 323
313 312 313 313 313 312 312 312 312 311 307 305 306 309 307 310 315 314 315 308 305 314 312 312 311 312 314 318 319 321 311 306 305 311 313 315 310 309 307 304 303 305 306 305 297 295 293 298 304 307 307 305 304 304 302 302 302 298 295 294 291 297 295 291 301 309 309 303 299 302 301 302 307 310 310 313 314 316 316 318 318 319 319 318 319 320 321 321
312 313 312 312 312 312 311 311 310 307 303 305 308 308 314 314 312 312 314 304 304 312 314 315 314 313 313 311 317 316 310 308 309 309 317 313 308 313 308 307 306 306 303 303 303 299 300 305 311 308 308 306 302 302 301 299 297 298 298 294 294 297 299 297 298 306 308 307 308 304 299 299 303 303 306 312 317 315 316 317 317 319 320 323 323 323 322 321
312 312 312 312 312 312 311 310 306 307 308 306 305 308 311 313 312 313 314 307 308 307 318 316 318 316 315 319 316 310 310 312 311 315 316 314 311 316 308 312 309 303 304 306 304 302 303 309 311 308 307 307 303 300 301 300 295 295 302 301 300 302 300 302 303 301 296 295 304 302 290 291 300 303 305 310 312 313 316 314 314 317 318 321 319 320 323 323
312 311 311 311 312 310 310 311 313 310 309 308 311 313 313 312 315 317 312 301 297 307 313 309 318 309 319 311 314 311 310 304 313 315 317 316 322 317 313 311 313 302 305 305 303 303 306 311 311 307 307 306 305 302 304 301 293 293 297 307 305 303 302 300 300 297 289 289 298 306 291 287 299 301 304 309 310 310 313 313 315 316 317 318 318 319 320 322
311 310 310 311 311 310 307 309 309 308 306 307 308 312 314 313 315 320 309 290 286 306 304 312 312 311 315 312 312 311 296 300 315 316 315 319 313 321 310 307 317 313 311 309 299 297 308 307 308 309 306 304 302 300 304 301 294 291 305 306 306 304 301 300 299 298 295 304 304 305 299 291 291 299 308 309 307 309 310 313 314 314 315 317 319 319 319 322
311 310 310 310 310 308 306 306 307 306 304 307 312 316 315 313 315 317 297 282 284 308 308 308 313 318 314 313 313 307 308 312 306 311 316 317 317 311 313 308 306 306 311 305 292 302 308 305 307 305 304 302 299 303 307 306 297 297 307 308 306 305 303 302 299 297 299 296 290 299 301 292 290 298 308 309 304 306 307 309 311 314 315 317 318 319 320 322
310 310 310 310 309 309 308 305 306 306 311 312 316 317 319 314 314 307 287 283 301 306 322 313 321 313 311 312 309 309 309 311 304 311 315 316 317 316 306 311 312 310 312 307 297 304 309 309 308 308 304 300 305 308 308 308 301 307 310 310 308 308 306 303 299 298 297 292 288 296 301 290 287 296 300 305 303 302 305 309 311 313 315 316 317 318 320 322
310 310 310 309 307 307 305 306 305 312 314 316 317 318 314 313 306 292 283 283 308 299 309 312 309 310 311 307 306 309 307 310 311 311 313 310 313 315 317 318 313 313 309 309 307 307 310 319 315 310 305 309 309 308 309 308 310 313 310 306 305 304 302 302 300 297 292 284 287 298 301 294 284 293 299 298 300 304 307 308 311 313 315 317 318 318 320 320
309 309 309 309 300 310 310 305 310 315 316 319 318 312 309 307 296 281 282 293 307 305 311 309 307 311 310 306 300 308 308 308 309 310 306 310 307 309 310 306 310 304 302 303 302 306 310 311 311 311 318 313 311 308 310 311 312 310 304 301 301 298 301 298 296 297 288 285 292 300 300 299 285 291 300 305 310 310 309 308 311 312 315 317 318 319 320 320
308 308 309 305 307 309 306 304 310 312 315 317 315 308 303 291 290 286 286 309 295 300 303 301 307 306 306 307 305 305 303 306 309 309 304 305 304 303 304 299 300 291 292 294 295 304 301 303 310 310 315 312 308 304 305 309 310 305 302 299 291 288 290 286 291 286 285 285 296 301 301 293 293 299 304 308 309 312 313 312 312 313 314 315 317 320 321 321
307 308 309 308 308 304 307 310 311 313 315 316 310 303 295 286 283 287 295 300 292 303 304 310 305 306 306 304 302 306 307 302 308 307 308 307 305 304 308 305 304 297 291 295 295 294 296 304 307 307 310 312 309 300 297 297 302 301 298 294 288 284 284 282 284 286 289 295 301 300 302 292 300 304 308 308 311 314 315 315 316 315 315 315 317 321 321 321
307 308 304 308 307 308 311 315 315 315 313 312 302 297 292 283 284 309 301 299 300 308 308 306 306 306 305 299 303 306 298 305 307 305 306 302 302 300 302 306 308 305 300 296 293 290 285 289 298 306 299 311 307 304 302 298 300 300 306 300 293 290 286 282 284 283 285 288 297 302 294 291 291 297 309 312 315 316 317 318 317 318 318 319 320 321 322 321
307 307 305 307 309 310 310 311 312 315 314 305 298 291 283 284 289 291 294 296 300 305 305 307 304 302 300 303 305 308 304 298 307 305 303 300 297 300 301 300 307 308 304 292 294 296 297 294 300 310 309 309 308 310 310 307 302 306 308 304 296 294 294 287 290 287 288 288 288 293 291 300 299 309 312 314 316 316 317 317 318 317 319 320 320 320 321 322
306 309 311 311 311 317 313 313 313 314 309 299 291 285 284 291 290 299 297 304 303 302 304 303 303 299 298 298 303 304 309 303 305 304 302 302 304 302 306 307 305 307 301 295 297 292 292 290 303 308 310 312 310 310 310 311 291 300 302 294 298 304 300 289 292 294 292 288 288 293 296 301 308 309 311 313 314 314 315 315 316 316 316 317 317 318 321 323
305 311 313 320 321 323 316 317 319 314 304 297 288 284 291 298 301 301 305 304 302 305 301 292 296 297 296 295 297 302 305 306 303 302 295 303 297 305 305 306 310 309 308 302 297 303 292 293 302 305 304 308 312 312 312 312 308 300 293 300 307 309 303 290 286 285 286 286 288 296 293 294 295 289 310 309 309 311 312 312 314 315 317 316 317 318 321 322
306 310 317 319 322 325 321 321 319 310 302 293 285 298 301 297 304 302 303 302 303 306 299 295 298 303 297 295 295 301 305 299 300 301 298 302 296 308 308 307 311 310 309 310 299 301 299 289 296 307 307 308 313 312 307 312 313 304 302 311 300 288 288 292 284 283 282 284 287 293 296 295 297 296 304 305 307 309 311 313 313 314 315 316 317 319 321 322
306 312 313 317 326 327 324 321 313 304 296 290 287 292 299 300 304 304 306 302 307 304 298 299 296 303 301 295 300 304 303 295 300 298 295 299 295 306 307 310 309 311 313 312 303 301 301 289 293 303 306 307 311 305 292 302 308 313 315 308 308 300 292 291 290 291 290 285 286 290 294 289 301 301 305 305 308 310 309 311 312 314 316 317 318 319 320 320
306 301 302 317 320 321 319 313 306 300 292 286 289 295 302 301 304 307 307 303 303 300 300 302 305 297 302 301 304 298 303 304 300 299 300 302 300 308 307 314 307 309 309 309 305 307 299 297 287 295 305 306 296 302 296 300 298 302 303 300 300 301 306 301 298 293 286 284 284 286 286 293 301 307 307 307 310 312 312 312 314 315 316 317 318 319 319 320
309 302 302 318 319 320 317 309 301 297 295 295 301 301 301 301 307 308 307 305 306 310 305 303 301 298 301 298 299 305 302 302 303 297 303 302 300 292 306 308 310 306 308 305 303 302 291 296 290 292 296 294 298 304 306 305 304 301 299 296 298 295 294 289 287 299 296 289 285 285 287 296 304 311 310 310 312 313 314 314 315 316 316 317 318 319 319 319
307 302 307 319 319 318 309 299 300 301 298 297 297 302 303 314 307 306 305 307 307 305 309 305 307 305 303 303 301 303 303 300 302 301 303 299 304 304 307 311 310 308 304 298 299 304 302 297 295 288 293 297 302 308 310 310 310 307 304 300 302 298 296 289 284 289 294 293 296 294 289 293 308 309 311 312 314 314 314 316 315 316 316 317 318 319 320 321
297 298 314 319 319 315 304 297 297 298 300 302 309 308 309 308 307 306 304 305 305 305 305 305 306 305 308 306 306 304 305 299 303 300 302 306 304 307 309 311 311 309 306 300 306 305 319 296 292 294 297 299 305 307 310 311 311 304 303 305 303 297 298 294 291 294 288 292 286 286 287 292 306 311 313 314 315 314 315 316 316 315 316 317 317 318 318 319
299 301 305 315 321 316 305 291 289 289 298 304 307 306 309 308 306 306 306 307 306 304 304 304 305 309 305 310 307 304 306 292 304 303 298 305 304 311 311 311 312 306 307 303 300 308 293 294 294 286 283 286 294 297 301 305 308 301 300 302 305 305 304 301 299 294 288 291 289 286 286 289 304 312 312 314 314 314 314 316 316 315 315 317 317 318 319 319
302 306 306 308 316 312 303 300 297 294 297 301 304 302 304 306 308 308 307 306 308 306 305 303 307 309 307 310 307 308 309 302 297 305 305 306 305 313 313 311 311 307 311 320 319 309 299 297 288 284 283 281 283 285 288 294 297 301 307 305 306 304 302 298 292 288 286 292 292 286 290 300 307 310 311 312 313 314 316 316 317 316 316 316 317 317 317 318
303 293 299 306 311 311 308 309 305 300 298 301 296 301 305 302 306 310 309 308 309 307 306 307 308 309 307 305 303 304 303 309 302 300 302 301 304 310 313 311 311 310 317 320 319 310 300 299 294 289 285 285 290 293 298 301 300 296 301 303 303 305 303 299 294 287 286 291 291 296 298 299 303 306 308 310 311 311 312 314 315 315 315 316 317 317 318 318
307 300 295 291 302 301 305 305 307 305 299 302 292 304 301 303 305 307 311 304 308 307 308 306 307 303 303 304 301 302 304 303 307 306 304 304 306 308 310 310 310 318 321 316 322 305 296 290 298 299 298 299 302 302 305 305 301 303 301 301 303 303 302 298 290 290 298 296 289 298 302 300 302 306 308 309 310 311 312 313 314 315 315 316 317 317 319 318
294 299 306 306 298 289 292 293 303 302 306 306 301 307 303 302 303 300 307 309 309 309 302 303 306 308 306 305 303 294 300 300 300 299 305 307 305 306 305 309 308 315 315 310 315 303 295 289 299 300 299 302 304 304 305 304 304 305 305 303 302 303 301 298 297 300 298 291 291 299 302 301 304 307 309 310 309 310 312 313 315 316 316 316 315 315 315 316
304 303 304 308 296 301 301 303 305 305 305 306 299 305 302 303 302 306 305 304 307 306 307 291 301 305 305 308 302 297 300 292 291 299 301 300 303 302 299 303 306 309 309 306 309 306 296 292 299 301 299 301 303 304 304 302 303 303 304 305 304 303 302 302 301 301 299 298 301 301 301 302 305 307 310 310 312 313 313 315 316 315 315 315 314 313 313 313
300 299 297 306 304 304 304 304 305 304 299 306 294 304 305 304 302 304 308 306 298 303 309 303 304 305 305 307 303 299 301 300 300 297 301 303 300 302 301 302 301 305 308 305 308 307 299 291 301 298 291 296 301 303 304 303 304 302 305 305 304 304 303 303 303 303 303 301 302 302 301 301 306 310 311 313 312 314 314 314 314 314 314 314 313 312 312 312
309 307 308 302 300 301 304 304 303 301 295 298 295 302 305 306 304 307 306 310 305 304 307 304 306 305 306 307 305 304 308 307 305 303 304 304 298 304 299 300 307 302 305 304 305 305 301 292 299 292 284 291 299 301 304 305 305 304 302 303 304 302 299 300 297 302 301 299 300 300 299 299 305 310 312 312 312 312 311 311 311 310 311 312 311 311 311 311
308 310 312 306 296 306 301 303 303 295 291 301 303 303 304 303 307 306 296 306 309 309 308 305 305 303 301 302 302 304 307 309 309 310 309 309 309 309 306 306 307 304 302 303 306 302 302 298 291 287 283 286 298 301 300 299 296 294 295 300 305 305 304 305 305 305 305 304 300 295 298 304 307 310 309 309 310 310 309 310 309 309 310 310 309 309 310 310
Wind_Speed
10 10 10 10 10 10 10 10 10 11 11 11 12 12 12 12 11 11 11 11 11 12 12 12 12 13 13 14 15 13 12 9 10 6 6 12 9 8 6 6 3 10 8 3 2 3 6 3 4 4 3 3 3 0 3 2 2 1 2 2 5 4 5 3 6 5 5 7 7 5 1 1 5 9 7 14 10 1 9 7 2 6 6 10 11 17 20 19
10 10 10 10 10 10 10 11 10 10 11 11 12 11 11 12 12 11 11 11 11 12 12 12 12 13 13 14 15 14 11 10 10 9 15 11 8 9 9 10 4 3 9 1 4 4 5 4 4 4 3 2 2 2 2 2 3 2 1 2 4 1 3 4 6 6 6 7 7 9 5 1 3 1 5 8 10 9 11 6 11 12 14 16 17 15 18 21
10 10 10 10 10 11 11 10 11 11 10 11 12 12 11 11 11 11 10 10 11 11 12 12 11 12 12 13 14 13 9 8 6 6 6 6 12 10 7 5 5 9 8 3 4 4 4 6 9 2 3 3 2 4 2 2 1 2 2 2 3 1 1 4 1 6 1 6 6 5 9 4 5 3 6 4 11 17 3 16 14 16 22 20 18 18 17 19
11 11 11 11 11 11 11 11 11 11 11 11 11 12 12 11 11 11 11 10 10 11 11 12 11 11 12 12 12 8 7 5 2 2 1 1 6 6 5 4 4 8 5 2 3 3 4 7 8 3 1 4 3 2 2 3 0 2 1 0 2 2 5 5 5 4 6 7 6 2 8 2 3 4 3 6 9 9 9 9 12 23 20 19 20 19 18 19
12 12 12 12 11 11 11 11 11 11 11 12 12 12 11 12 11 11 11 10 10 10 11 11 11 11 12 12 13 6 5 3 1 1 2 3 5 6 6 4 5 5 4 2 3 6 7 6 3 2 1 3 2 1 2 2 0 0 2 3 1 2 3 3 6 4 4 3 5 5 2 0 3 5 4 8 4 7 8 13 10 21 23 22 21 18 17 17
12 12 12 12 12 12 12 11 11 12 12 11 12 12 12 11 11 11 11 10 10 10 10 10 11 12 12 11 7 5 1 6 1 1 4 4 8 8 7 5 6 2 0 2 2 3 5 4 1 1 1 0 1 1 3 1 1 1 3 0 4 2 0 4 4 5 5 2 4 5 3 3 5 3 9 2 3 4 6 10 12 14 14 15 16 17 16 17
13 13 13 13 12 12 12 12 12 12 12 11 11 12 12 11 11 11 11 10 10 10 10 10 10 11 12 11 4 2 1 6 1 4 5 7 10 9 7 5 4 2 1 2 2 2 4 4 1 2 2 1 2 0 2 2 2 3 2 2 3 4 4 3 2 4 5 3 3 6 12 6 10 0 7 1 2 4 5 7 8 10 14 13 13 12 15 16
14 14 14 14 13 13 13 13 13 12 12 12 12 12 12 12 11 11 10 11 10 10 9 9 9 9 10 6 1 2 1 8 5 2 8 10 10 9 7 2 3 3 4 5 3 3 4 4 4 2 2 1 2 2 1 2 1 1 1 3 1 1 0 2 2 3 4 5 6 9 13 8 9 3 5 1 4 5 4 7 12 5 4 10 13 12 14 14
14 14 14 14 13 14 14 13 13 13 12 12 12 11 12 12 12 11 10 10 10 9 9 8 8 8 8 3 1 4 7 6 10 9 10 10 8 7 7 4 4 3 1 3 6 8 1 4 1 2 3 1 1 3 2 1 2 0 1 1 0 1 1 1 3 3 5 4 7 8 14 12 9 11 2 3 4 3 6 7 10 5 6 7 7 8 6 10
14 15 14 14 14 15 14 14 14 14 13 12 12 12 12 12 11 11 11 10 9 8 8 7 7 6 5 1 1 1 5 9 8 11 10 11 10 8 7 3 7 4 2 6 5 6 4 4 3 2 5 1 0 2 0 0 2 2 3 3 1 2 2 1 2 2 4 2 3 6 17 10 3 4 2 1 2 3 9 8 4 5 6 10 12 9 6 8
14 14 14 15 15 15 15 14 14 14 14 13 12 12 12 12 11 11 11 10 8 8 6 6 5 4 3 1 1 6 4 9 7 10 12 11 11 9 8 6 9 4 7 8 8 7 3 2 1 2 1 1 1 3 0 2 1 1 3 2 1 2 3 2 1 2 4 4 4 8 17 11 4 2 5 5 3 4 11 11 8 4 4 13 17 14 9 5
15 15 15 15 15 15 15 15 14 14 14 14 13 13 12 12 12 11 10 9 8 6 5 3 5 2 3 1 2 9 7 5 10 9 9 13 8 10 8 8 10 9 7 6 7 3 3 2 3 2 1 2 1 1 2 3 1 2 0 3 2 4 3 1 3 2 6 3 3 12 11 2 4 2 2 4 6 6 8 6 6 3 2 3 8 9 7 8
15 15 15 15 15 15 15 15 15 14 14 14 13 13 12 12 12 11 10 8 6 5 5 3 1 2 1 3 11 8 1 9 11 10 9 8 4 4 5 6 10 11 10 10 5 4 4 2 4 2 3 4 1 1 1 1 2 1 2 1 3 5 3 4 3 1 5 5 5 5 4 3 4 3 2 1 3 3 7 6 4 2 5 3 4 6 5 1
15 15 15 16 15 16 15 15 15 15 15 15 13 13 13 13 13 11 10 8 7 7 9 7 2 1 2 8 5 3 7 8 11 11 12 8 5 4 2 8 10 10 11 10 8 6 4 3 4 1 3 2 2 2 1 2 1 1 0 1 0 2 3 2 3 4 2 4 6 8 4 4 4 3 2 0 1 4 7 7 4 6 6 4 3 3 4 4
15 15 16 16 16 16 16 16 15 15 15 16 15 14 14 14 13 11 9 6 7 6 4 2 3 3 1 9 7 12 13 10 12 14 12 12 9 2 7 6 7 5 2 4 5 2 4 5 2 2 1 3 0 1 3 1 1 1 1 4 2 2 5 4 1 3 4 2 2 1 0 4 3 1 1 0 2 2 9 7 7 7 6 5 5 5 5 5
15 16 16 15 16 16 15 15 15 15 15 16 17 16 16 14 13 10 7 5 2 3 4 3 3 3 2 9 4 8 4 11 16 15 12 13 11 7 5 5 1 6 10 6 6 0 1 3 1 3 1 2 0 1 2 4 2 1 2 3 2 1 4 6 1 3 5 1 3 1 3 1 0 1 3 0 2 3 6 6 7 7 6 4 6 6 5 5
15 16 16 16 16 16 16 15 15 15 14 16 18 17 15 13 11 7 3 2 2 3 3 1 3 4 1 2 6 3 3 8 8 10 11 9 10 7 6 2 3 5 7 6 5 4 4 2 2 1 1 2 2 2 1 4 4 3 0 3 3 1 2 2 3 2 1 2 2 4 2 0 2 3 5 1 1 2 4 4 4 8 7 4 4 6 6 5
15 16 16 16 17 17 16 16 16 15 15 17 17 15 12 11 2 3 2 2 2 2 2 3 2 2 8 2 1 6 3 6 10 11 12 9 8 10 6 2 2 5 6 6 5 5 3 2 2 2 2 1 1 1 2 0 2 1 1 3 6 1 3 3 0 1 2 1 0 2 4 1 3 3 4 2 2 2 2 3 1 1 4 5 4 6 7 3
15 15 16 15 16 17 16 15 16 15 14 17 16 10 4 9 3 1 2 3 2 1 1 1 2 1 4 4 7 6 3 8 6 11 9 8 4 5 5 5 5 5 2 4 3 5 3 2 3 1 3 1 3 5 6 7 2 5 1 3 2 3 2 1 3 0 4 1 0 2 1 1 2 3 2 3 3 3 3 4 2 4 4 6 5 4 3 4
16 16 16 16 16 16 15 16 15 15 13 10 5 1 1 0 1 0 1 2 5 9 12 11 9 9 10 16 7 7 1 7 6 8 8 6 9 7 7 3 5 6 3 1 4 2 0 1 2 5 6 6 4 5 6 5 3 3 2 3 5 4 3 1 1 3 4 1 2 0 3 2 1 1 2 3 5 5 5 4 4 4 4 4 4 2 3 1
16 16 17 17 17 16 16 15 14 13 10 6 5 0 2 0 1 3 3 10 12 12 12 13 13 13 13 3 2 1 3 3 5 7 10 8 6 9 3 2 3 1 0 3 2 1 1 1 6 9 9 8 7 4 3 3 3 2 3 0 1 2 1 1 0 0 2 0 2 2 3 4 1 1 1 2 4 2 4 4 4 2 4 2 5 5 4 4
16 16 17 17 18 16 14 13 13 10 7 3 1 0 2 3 3 2 1 8 11 10 14 15 7 11 11 12 15 8 3 2 5 7 4 10 8 6 4 3 3 3 1 0 1 3 1 2 7 6 6 5 5 3 3 2 3 2 2 3 3 1 1 1 2 2 1 5 2 2 3 3 3 1 1 1 1 2 5 4 5 7 7 5 6 6 8 6
16 17 17 18 17 15 12 14 11 9 3 1 1 1 3 6 2 4 3 3 10 3 7 6 7 12 13 11 9 9 11 5 6 8 9 7 5 5 5 3 2 1 0 0 1 2 5 5 7 7 3 4 3 3 3 2 1 3 2 0 2 2 2 1 3 1 3 2 3 0 3 1 1 1 1 0 0 2 3 3 4 3 8 9 9 9 7 7
16 16 18 18 19 16 15 12 13 1 3 4 2 5 6 5 5 5 2 2 5 11 4 5 6 4 9 5 3 9 10 3 7 9 6 7 8 4 3 2 2 1 3 6 3 3 3 4 6 5 3 1 2 3 2 1 5 2 3 2 2 1 1 2 3 0 1 4 4 1 1 0 0 1 1 1 2 2 2 2 1 2 2 2 1 3 5 8
16 16 17 19 19 19 17 13 2 1 4 2 5 8 8 8 4 3 1 3 2 7 5 3 5 3 6 1 2 5 3 0 4 8 11 11 9 6 4 3 4 3 5 2 2 2 8 8 6 1 4 1 1 4 3 5 2 3 4 5 4 5 6 1 0 2 3 1 1 1 3 3 1 0 2 1 2 2 2 2 4 4 5 5 6 5 2 1
15 16 17 17 19 20 16 1 0 4 2 4 5 5 4 2 2 3 3 2 4 6 2 2 0 2 0 1 2 1 4 2 3 7 11 8 6 6 5 4 5 7 10 3 5 3 2 2 8 5 2 1 2 3 2 4 3 1 1 4 7 6 4 3 3 3 1 1 2 2 2 2 2 2 1 2 2 3 1 4 5 5 5 3 4 5 5 5
15 15 15 15 16 19 3 0 2 5 0 2 3 8 7 6 4 3 3 3 2 2 1 2 3 1 2 2 3 3 2 2 3 5 8 7 4 3 7 5 2 2 3 3 1 3 4 5 4 3 1 1 2 4 3 5 4 1 2 8 7 7 5 2 3 4 1 2 2 3 4 2 4 4 2 2 2 3 6 6 5 5 5 5 2 3 8 8
15 15 14 13 13 8 2 3 7 1 2 4 7 7 7 6 3 4 3 1 2 1 1 2 2 1 2 1 6 4 3 6 2 3 5 7 8 3 1 5 6 5 2 3 0 3 7 5 7 6 2 1 3 5 1 3 1 1 1 7 5 6 4 4 6 4 1 2 2 5 5 3 2 3 2 5 5 3 4 4 5 7 7 6 5 2 7 6
14 12 12 11 15 7 4 2 1 3 3 6 8 7 6 3 4 4 3 2 1 0 1 1 2 1 2 1 2 4 3 3 3 2 4 4 6 4 0 5 3 2 1 2 3 1 2 7 9 7 5 4 6 2 4 6 2 2 8 9 8 6 3 5 5 6 3 3 1 4 5 1 3 2 1 1 1 1 2 5 7 6 8 8 8 6 6 9
13 12 11 9 7 3 1 0 5 8 7 8 7 7 3 3 2 2 2 1 1 1 2 2 1 2 2 0 2 3 5 1 3 3 6 4 2 2 1 2 4 3 1 3 1 4 3 5 9 4 4 2 3 2 5 5 2 6 9 7 5 6 2 3 6 2 3 4 2 1 1 4 1 4 1 1 1 1 3 3 3 3 5 6 7 11 12 14
17 13 9 4 1 1 1 3 9 6 7 5 7 4 2 4 2 3 1 2 0 3 2 1 2 2 2 2 3 4 6 3 2 3 1 1 1 2 2 2 5 4 4 6 3 4 3 1 1 2 3 3 2 3 3 1 5 4 2 3 5 6 3 3 4 4 3 2 4 1 3 3 2 1 2 2 3 3 4 4 2 3 6 6 3 6 12 13
20 16 9 4 4 1 4 4 1 3 5 7 4 3 3 1 4 1 1 4 1 4 3 4 6 5 8 6 7 8 3 3 5 0 2 1 0 1 1 1 0 4 7 3 4 4 1 1 1 5 1 5 2 5 2 2 0 5 6 6 4 1 3 3 4 2 0 2 1 5 4 3 4 2 2 7 6 5 3 5 6 7 11 12 9 6 8 9
22 19 11 7 6 2 7 7 5 6 7 5 2 3 3 3 1 2 2 2 1 1 1 3 5 8 5 8 7 8 4 5 4 3 1 1 1 5 1 2 3 4 2 2 2 4 2 3 2 4 4 1 6 5 0 0 0 3 4 4 3 1 0 0 1 1 1 2 1 2 5 3 2 2 7 7 7 7 5 7 5 7 10 11 8 7 9 9
22 17 5 4 10 9 4 2 3 4 5 4 2 4 7 2 2 4 2 3 0 3 6 4 5 6 7 4 4 4 4 1 7 3 4 2 4 5 5 3 3 1 4 1 1 1 2 3 3 3 2 1 1 4 8 5 3 3 1 4 4 5 1 1 2 1 2 2 1 3 0 0 1 3 8 4 4 3 3 4 5 5 8 8 7 7 7 7
23 12 2 1 4 8 12 7 5 1 1 1 6 4 2 3 1 0 2 2 1 2 2 3 4 4 7 4 4 4 2 2 5 4 6 5 4 1 6 5 4 5 1 5 2 1 1 3 5 5 3 2 3 1 5 2 3 1 1 2 3 4 4 2 3 3 2 2 3 3 2 2 2 1 6 5 4 4 6 9 7 7 6 7 7 6 5 4
12 2 4 1 3 4 7 6 3 1 1 5 5 2 1 4 1 1 2 2 1 1 1 4 5 6 2 3 3 8 3 2 5 4 3 3 2 4 4 1 2 3 2 1 1 1 4 2 3 4 4 2 2 3 1 5 0 1 3 2 4 2 6 4 1 2 4 3 3 0 2 1 2 3 7 5 6 6 6 6 8 9 9 6 9 7 6 5
8 7 3 1 3 3 6 6 5 4 5 7 5 1 4 3 6 2 4 1 2 5 3 5 3 2 3 3 3 7 6 5 4 2 3 3 2 4 3 3 2 3 1 5 3 3 1 5 3 3 2 2 4 4 4 1 1 4 1 3 1 2 5 3 2 1 3 4 3 2 4 4 4 2 3 6 8 7 6 5 7 8 8 8 7 8 6 6
6 4 3 4 3 7 7 6 6 2 3 3 1 6 1 1 3 3 6 5 1 2 4 2 0 5 0 1 5 4 8 3 7 2 0 3 1 4 3 2 8 2 7 4 4 1 2 3 2 3 1 2 4 6 6 5 5 3 2 1 1 0 1 3 4 1 2 2 1 1 1 1 3 4 4 7 6 6 4 4 5 7 6 6 6 7 8 7
1 1 3 2 3 9 5 6 4 3 2 3 1 1 3 5 5 8 10 5 1 2 4 0 2 0 1 1 1 2 3 2 3 2 1 1 2 1 1 1 4 7 3 1 1 1 2 2 5 2 2 3 2 5 1 5 7 2 2 2 0 1 1 2 0 3 5 2 2 3 4 1 3 3 4 4 3 2 2 4 5 6 6 5 5 6 7 6
4 3 2 0 3 5 6 5 3 3 4 0 1 3 4 4 6 10 11 5 1 4 1 1 0 2 2 2 2 1 3 1 3 3 1 1 1 5 2 3 2 8 7 1 1 2 0 2 1 4 2 4 1 1 5 7 4 2 2 2 1 2 1 4 1 1 2 4 2 3 2 2 2 3 2 2 1 4 2 6 6 6 5 5 5 5 6 6
1 1 2 1 4 5 5 3 1 1 1 2 1 3 4 3 5 9 12 4 3 3 4 3 3 1 2 2 2 1 1 1 1 2 1 2 2 2 2 4 7 5 3 5 6 2 1 1 1 4 5 0 4 4 6 10 7 6 6 4 6 5 2 1 1 1 2 5 3 4 4 1 2 1 3 3 2 2 3 4 6 6 6 6 5 5 5 6
2 2 1 2 4 5 4 2 1 1 1 1 2 2 4 5 4 9 5 1 6 1 2 5 2 3 1 1 2 1 1 2 1 1 1 1 2 1 4 9 7 4 1 1 3 4 2 1 2 3 1 2 3 3 2 7 4 2 4 1 6 3 4 4 4 1 4 3 5 2 4 2 1 1 2 1 2 3 3 3 6 6 6 6 6 6 5 5
2 3 4 3 4 3 4 1 2 1 1 3 6 4 5 3 3 5 7 6 3 3 2 2 2 3 0 1 0 0 0 0 0 1 2 2 3 3 4 9 7 7 2 3 3 2 3 2 3 3 6 3 2 4 2 2 2 2 1 3 3 3 5 5 5 5 6 2 3 1 4 3 2 3 2 1 2 2 2 3 6 6 6 7 7 7 7 6
2 2 6 3 2 3 3 0 4 5 4 5 2 3 4 3 3 6 6 7 4 3 4 3 5 3 2 1 1 0 1 1 1 2 2 1 3 6 7 8 5 3 1 1 1 4 2 2 3 2 2 4 6 8 9 8 5 2 4 3 2 2 4 3 6 3 6 1 5 5 4 2 4 3 3 3 2 3 4 4 5 8 6 7 7 7 7 7
3 2 3 5 3 2 1 3 2 1 3 3 3 6 7 3 4 5 4 5 4 2 1 3 2 2 2 0 0 1 1 2 1 2 1 2 2 3 7 5 7 3 3 2 1 0 4 1 3 3 3 3 3 3 4 6 5 5 5 12 10 5 6 6 2 2 5 1 6 3 4 2 2 1 1 2 2 6 5 6 6 6 6 7 7 7 8 7
3 2 5 2 2 1 1 1 1 2 1 2 4 4 3 4 4 7 9 3 5 3 4 2 3 5 3 2 2 2 2 0 1 2 1 2 2 3 4 8 5 3 4 8 5 4 1 1 3 4 4 5 5 5 5 2 2 4 12 9 11 2 3 6 5 5 4 2 6 3 4 8 4 3 2 3 2 7 7 7 7 6 6 6 6 7 7 7
0 2 1 3 6 3 2 2 2 2 4 2 1 2 4 3 3 3 8 2 4 4 2 4 2 3 1 3 0 1 1 3 3 1 1 3 3 3 10 7 6 5 9 3 6 3 3 3 1 3 1 6 5 2 1 0 3 1 6 9 9 2 3 4 5 5 8 12 4 1 7 9 5 4 4 3 2 5 5 6 6 6 6 7 7 7 8 7
2 2 2 2 1 3 4 4 6 7 6 1 2 0 2 4 5 3 4 3 3 6 4 4 6 2 1 1 1 0 3 3 1 1 3 1 3 6 7 6 3 11 8 1 2 3 2 1 2 2 2 3 2 4 5 5 5 2 7 5 3 3 4 4 2 10 4 6 11 10 7 9 7 7 6 3 3 6 7 7 7 7 7 6 7 8 7 7
1 1 0 2 2 2 2 7 5 5 7 3 1 1 1 2 3 1 1 3 4 3 4 1 3 6 3 1 1 1 0 3 3 2 1 3 2 5 4 7 3 8 6 3 4 1 3 0 1 2 2 4 4 2 6 9 2 2 8 8 3 7 7 9 6 1 6 7 13 13 10 8 6 6 6 5 2 6 6 6 6 7 8 8 8 8 8 7
1 1 4 4 1 3 3 2 2 3 3 3 0 1 0 0 1 2 2 1 2 2 2 3 2 4 3 3 0 0 3 3 3 2 2 1 6 0 2 1 3 4 3 2 1 2 4 2 1 2 2 2 4 5 6 9 7 5 5 7 7 8 9 8 10 12 16 12 9 11 10 8 0 4 6 4 3 5 8 8 8 7 7 7 8 8 8 8
2 0 0 1 4 5 3 3 4 4 2 2 1 1 1 1 1 1 1 1 4 2 1 1 4 5 3 1 1 2 3 5 6 8 8 3 4 4 1 3 1 6 3 2 2 3 5 2 2 2 3 1 2 3 3 5 6 2 3 6 6 7 9 2 7 5 12 10 10 8 8 6 4 4 6 7 6 7 7 7 6 5 6 8 8 6 6 5
2 2 1 2 1 2 2 4 3 3 1 2 2 2 1 2 2 1 1 4 3 2 2 4 2 1 2 2 2 3 5 4 7 8 7 8 7 7 4 6 5 5 2 1 1 1 1 0 1 1 4 1 1 2 1 1 4 3 3 3 6 0 3 5 5 3 9 18 13 10 8 6 8 7 9 7 8 6 5 7 8 8 8 8 8 8 7 6
Wind_Direction
331 329 328 326 325 326 325 322 321 321 320 318 318 319 317 319 320 321 321 319 317 315 316 315 312 311 310 309 310 312 318 314 308 295 256 242 229 223 196 208 265 221 202 180 256 305 302 307 280 263 215 128 249 217 225 210 202 143 206 205 258 228 290 266 300 356 339 19 305 303 241 221 310 340 339 323 11 68 122 98 91 73 69 109 114 130 134 136
330 330 329 326 325 324 326 324 322 320 320 318 317 317 317 317 318 320 321 320 319 316 316 315 314 312 312 310 312 313 322 308 296 276 240 246 245 241 227 239 245 149 121 157 224 234 264 291 273 245 158 188 229 208 132 268 165 164 233 158 231 210 224 37 29 43 6 333 302 318 337 232 217 77 359 343 332 327 95 88 106 101 101 110 122 132 135 139
328 326 325 326 324 325 326 324 322 321 320 318 317 317 317 314 316 317 319 319 318 317 315 316 314 314 311 312 309 313 326 304 285 269 272 231 262 259 237 192 199 146 153 175 209 236 250 275 293 350 177 219 242 242 178 273 243 244 178 265 248 241 307 76 345 0 311 255 304 356 299 355 312 10 42 307 317 318 168 132 118 127 135 139 137 137 141 141
326 325 324 321 323 323 322 323 322 321 320 319 317 317 316 316 315 316 316 317 318 317 317 315 316 314 311 311 308 319 305 281 310 240 304 303 69 81 110 135 145 155 162 234 260 260 276 282 279 314 249 196 270 200 222 255 186 280 31 116 277 40 337 352 20 30 358 357 329 227 276 337 23 16 62 247 4 300 293 324 160 145 147 144 143 143 146 148
327 324 322 322 321 322 321 321 322 319 318 318 318 316 315 316 315 314 314 316 319 320 318 317 316 313 314 308 313 324 304 27 300 21 229 123 102 97 94 108 128 147 175 254 298 260 253 265 313 321 225 272 308 161 242 267 142 130 172 211 274 346 18 348 322 9 7 353 311 290 275 156 141 52 294 237 138 273 298 319 303 146 148 144 145 150 148 150
324 323 321 320 322 322 322 322 320 319 317 317 317 316 314 314 315 313 314 315 319 319 319 317 315 318 313 313 303 297 315 342 145 241 154 92 136 120 120 112 133 131 25 254 239 297 297 275 192 345 328 123 282 89 274 160 284 282 300 123 86 45 146 342 338 334 24 10 314 324 290 336 92 351 275 16 104 259 297 303 297 143 136 139 138 144 146 146
323 322 321 320 321 322 322 320 321 319 318 318 316 315 315 313 314 313 314 315 315 319 317 317 319 319 320 312 279 224 208 258 343 228 122 143 125 124 126 138 155 91 37 338 256 217 252 261 158 234 281 18 302 83 310 3 78 110 235 328 55 66 39 312 315 4 10 353 320 295 328 236 122 61 283 26 0 313 300 315 293 131 137 137 136 140 142 141
322 321 322 322 321 321 321 321 319 319 319 318 317 315 314 312 310 313 314 314 314 315 318 318 320 322 330 334 280 293 173 259 204 141 155 136 119 129 133 138 148 158 182 196 214 244 259 246 217 184 90 99 244 344 275 354 334 168 344 16 27 46 248 287 327 29 19 353 306 349 316 271 112 135 263 5 63 335 350 341 343 79 143 138 137 138 141 135
321 320 322 322 321 321 321 321 320 318 318 319 315 316 313 313 310 311 314 312 313 311 316 318 325 318 323 287 321 339 270 232 153 158 151 128 138 132 154 156 192 177 251 262 229 240 269 274 169 187 231 158 279 357 341 75 335 86 145 129 267 227 290 342 8 350 50 14 357 345 293 284 132 143 0 26 17 332 118 49 346 355 36 67 69 67 70 121
321 321 322 324 324 323 322 321 321 318 317 316 315 314 313 312 313 310 311 311 310 312 310 319 311 328 329 336 246 309 271 110 129 151 157 140 142 156 197 197 164 199 228 252 251 244 216 249 264 203 126 82 61 237 272 136 226 197 158 186 167 245 188 116 75 338 31 338 327 305 285 277 305 129 181 245 223 125 128 134 93 22 84 62 59 63 56 110
319 320 324 325 325 324 323 322 321 319 316 315 314 313 311 309 308 305 304 310 309 309 312 304 304 276 265 276 108 262 144 116 154 154 153 147 151 161 193 190 175 185 220 273 250 227 212 295 193 116 51 222 159 283 233 228 176 219 189 166 351 300 223 186 84 1 67 345 352 282 261 255 312 111 171 147 194 159 139 144 132 168 170 138 143 160 133 127
318 320 322 326 327 325 324 323 322 319 316 315 313 312 309 307 302 301 300 304 310 306 319 280 283 274 275 233 200 234 171 149 161 159 159 157 169 188 194 180 176 196 190 234 257 272 262 201 114 90 191 119 309 237 310 221 126 254 349 263 313 349 10 170 156 217 99 279 313 276 264 305 356 204 206 151 167 169 139 126 113 114 107 91 128 133 126 146
318 320 323 328 328 327 325 324 322 320 317 315 313 309 308 302 297 297 296 295 298 306 273 290 312 269 307 297 226 229 184 138 161 165 169 189 174 216 181 198 194 204 197 225 256 231 233 169 105 104 175 131 182 181 228 129 174 132 27 140 349 4 331 258 163 145 136 225 202 235 239 258 262 263 174 211 166 117 109 117 92 102 110 96 107 114 117 103
320 321 325 329 330 328 327 324 322 320 317 314 309 308 306 301 295 295 293 285 284 264 235 241 240 246 188 246 275 196 186 161 160 169 185 196 160 208 180 257 232 219 217 235 261 256 253 149 131 167 156 125 253 316 40 338 73 165 261 60 168 55 270 274 154 132 167 188 175 213 232 273 273 270 89 41 137 127 114 119 113 106 102 78 89 93 92 65
322 324 326 330 330 329 327 325 323 321 317 313 310 307 303 295 290 290 284 277 247 229 194 206 229 175 114 260 257 262 208 155 176 188 184 180 178 170 213 215 275 286 302 251 266 245 119 138 95 89 237 227 113 11 338 359 340 149 15 310 330 138 274 305 252 141 175 325 300 74 194 242 272 276 85 10 46 87 122 125 101 105 115 111 78 91 87 76
324 326 326 327 331 329 328 325 323 321 317 313 311 306 297 285 278 271 261 252 272 123 156 130 188 215 313 294 284 329 93 171 202 184 191 183 170 178 191 152 125 19 9 351 317 32 58 94 130 194 272 26 73 128 348 20 339 359 123 278 297 194 262 332 191 182 155 295 309 217 218 305 240 245 142 162 43 68 113 121 123 122 140 131 106 100 100 91
326 325 325 326 332 331 327 325 324 322 317 315 312 303 293 279 270 255 234 156 168 182 186 47 123 188 19 239 310 308 197 204 141 180 191 203 172 158 149 147 64 34 345 342 33 51 353 53 324 31 9 174 173 111 43 13 336 321 4 243 221 240 275 267 300 288 113 77 292 351 86 300 295 114 132 214 87 41 98 127 159 152 154 134 90 86 82 84
326 325 323 328 331 332 328 326 324 323 321 319 314 302 294 279 254 91 137 162 158 146 283 261 245 330 273 17 259 225 190 185 166 179 184 203 159 140 144 136 95 99 29 13 7 36 340 6 44 220 1 343 106 74 107 228 193 220 277 280 298 259 183 228 55 294 97 357 178 324 70 358 38 95 105 105 104 51 68 99 123 342 130 115 76 84 104 145
326 325 323 326 330 332 329 325 324 325 324 324 310 309 64 87 124 288 154 151 130 43 25 192 131 101 238 240 235 303 218 196 143 146 184 188 142 131 78 83 84 62 4 44 303 36 341 7 28 28 286 311 233 177 184 217 227 293 212 223 242 301 279 272 249 237 150 176 335 61 88 27 55 66 72 53 65 83 65 66 68 62 54 92 85 89 138 183
325 325 325 323 329 331 330 326 325 326 333 334 348 20 128 1 28 352 355 263 215 230 244 249 192 258 300 281 259 243 32 109 147 181 161 170 123 133 109 97 64 58 89 335 307 353 209 85 235 234 229 228 234 199 204 227 242 283 315 206 241 227 297 300 303 210 192 103 348 312 72 85 97 117 119 104 78 69 102 114 72 71 71 107 122 145 186 158
323 325 325 325 329 332 329 327 324 326 333 329 307 284 24 55 23 321 279 228 224 226 229 240 202 206 231 254 224 130 165 207 188 176 177 162 133 125 185 98 34 8 253 224 166 298 69 354 261 235 232 219 235 233 236 285 245 227 266 218 121 154 146 268 309 14 280 120 311 334 74 48 104 286 61 60 89 91 112 108 117 139 132 141 193 176 147 144
323 324 326 325 329 332 328 323 325 320 332 309 353 62 263 218 229 228 352 317 304 217 231 238 213 249 253 245 254 225 250 158 174 171 174 160 161 166 203 119 158 198 263 282 27 24 23 222 270 249 233 234 236 237 233 226 304 341 255 201 94 289 223 314 22 66 325 82 275 329 66 40 38 30 52 72 115 125 133 179 163 165 175 182 214 188 179 160
324 327 325 326 327 328 330 318 317 329 305 156 131 215 248 238 308 321 295 259 262 276 235 231 208 232 264 261 246 147 225 216 183 172 180 167 132 218 159 164 128 172 113 281 61 345 5 332 334 318 211 211 258 228 239 291 210 232 274 87 221 220 104 282 298 330 30 109 182 199 79 357 11 52 352 3 75 99 115 106 155 185 172 195 210 196 176 167
324 326 327 325 325 329 322 319 310 291 195 218 238 220 253 290 312 338 43 273 306 314 208 226 209 215 233 233 228 167 195 212 122 177 174 161 134 14 329 175 135 154 259 199 198 159 147 222 294 335 337 92 287 318 318 335 300 243 183 161 164 195 177 162 235 334 108 70 112 148 76 114 280 46 35 110 114 87 117 109 104 189 221 195 227 233 186 169
323 324 327 325 326 326 320 313 27 235 157 174 243 248 269 281 284 240 57 334 329 269 251 272 191 235 222 58 90 163 216 288 169 166 173 151 130 80 251 157 86 288 264 176 160 328 284 200 181 260 270 267 253 294 254 183 232 310 224 185 188 140 119 96 214 98 25 345 237 148 27 332 305 155 223 127 69 50 37 174 203 224 215 188 184 194 246 140
322 323 327 327 325 330 308 34 323 358 272 267 234 297 305 300 303 237 102 40 318 270 318 312 56 285 9 221 194 142 57 295 179 156 161 171 141 133 81 308 137 217 253 176 191 204 206 187 163 218 221 299 265 236 240 143 175 95 299 120 115 119 120 129 146 83 25 135 298 60 107 293 347 322 352 67 77 82 139 246 228 225 235 239 203 157 164 165
321 322 323 327 328 336 5 314 317 279 18 285 334 331 316 338 333 57 53 357 358 266 246 229 69 201 106 220 159 59 34 275 50 102 144 163 145 144 122 218 204 247 161 142 43 309 154 197 178 213 162 45 306 270 239 158 106 253 152 119 113 112 113 136 102 75 160 276 302 107 75 78 337 333 46 47 90 218 196 209 228 216 229 222 185 140 164 178
315 318 320 322 322 343 201 320 342 354 255 270 323 312 317 319 0 54 82 61 356 309 304 270 193 328 258 193 136 163 201 127 76 225 189 152 103 322 105 190 179 226 206 103 136 257 157 188 195 200 206 65 250 225 192 113 129 228 60 99 86 105 117 100 75 63 45 74 16 96 91 56 316 301 43 165 186 227 215 213 210 208 206 203 159 181 181 161
308 309 316 320 318 331 190 181 95 243 262 307 304 309 314 351 68 102 119 100 245 267 108 350 25 36 269 50 202 239 281 185 138 197 165 157 206 142 212 243 177 191 85 131 212 16 307 201 202 177 134 207 232 214 158 150 106 66 98 84 83 63 59 92 77 47 349 69 36 132 148 128 272 267 6 266 167 196 213 205 214 205 195 189 161 169 97 95
304 309 310 313 324 96 77 194 226 246 290 295 296 300 351 51 36 36 17 315 339 295 202 233 60 263 49 340 312 189 261 8 107 149 174 175 208 63 204 135 143 122 142 348 191 208 213 293 166 158 200 201 169 174 159 197 135 113 74 72 55 59 43 78 90 112 32 30 265 337 26 159 43 292 282 353 253 208 237 247 222 198 193 186 173 152 143 158
314 309 298 308 165 253 157 301 244 235 262 292 313 351 66 37 108 98 83 235 34 262 334 3 326 13 66 16 358 351 344 77 79 131 126 8 349 18 8 8 33 55 14 348 351 324 337 49 54 255 191 88 108 113 190 161 142 124 91 79 46 3 12 60 44 44 82 280 268 196 253 218 125 318 305 282 280 249 223 232 238 173 141 120 231 168 152 167
314 311 296 197 235 0 164 233 206 326 331 325 3 46 68 16 10 98 235 304 53 293 33 331 20 30 20 8 29 358 345 6 25 45 157 177 136 350 299 159 128 44 336 331 305 358 6 308 256 301 258 123 89 72 14 71 13 71 85 57 81 324 30 6 12 31 173 199 331 325 328 40 39 170 339 327 317 304 251 220 220 167 149 175 179 150 151 160
315 311 303 217 182 220 241 262 334 321 337 348 55 55 59 95 25 261 291 312 239 212 38 36 41 42 21 33 7 345 341 51 322 39 356 344 93 285 237 152 189 132 177 247 268 15 286 281 331 296 350 169 121 110 273 356 27 93 110 130 86 56 88 184 235 213 267 239 183 250 42 66 295 352 352 318 309 292 271 240 225 175 160 171 160 140 151 159
313 314 325 184 192 212 245 245 255 349 352 18 77 34 48 56 247 247 250 248 302 61 55 32 37 30 38 62 331 360 8 329 18 331 40 3 46 3 324 348 105 37 84 142 20 206 51 357 316 76 315 304 101 160 176 178 158 203 174 127 175 148 159 216 177 154 185 182 69 356 16 220 62 324 316 312 282 284 281 331 9 87 138 137 133 133 137 148
311 300 190 152 235 237 232 244 264 333 354 59 51 81 115 240 249 197 273 308 311 16 45 22 58 32 355 10 326 23 122 292 344 3 27 50 1 2 355 314 360 85 132 44 275 96 277 222 246 179 208 126 152 225 126 83 58 100 281 39 69 241 145 127 199 149 173 103 19 359 90 16 58 18 40 340 340 355 16 40 60 65 67 84 85 70 75 96
322 326 144 235 213 244 183 201 196 137 102 59 75 45 204 189 256 215 247 243 340 73 273 23 61 58 348 330 298 355 315 67 322 30 353 35 325 35 356 60 4 318 97 39 276 336 21 332 258 300 122 132 204 143 179 121 95 209 108 210 209 188 99 101 51 29 75 67 56 267 348 53 164 38 30 9 32 32 30 46 64 70 65 56 77 85 111 130
357 329 21 247 227 170 162 165 152 112 64 89 89 267 212 278 200 219 258 276 226 153 58 69 339 78 350 340 314 338 329 9 330 57 354 358 353 338 1 322 193 323 160 137 323 210 145 264 288 108 308 256 212 126 125 75 109 90 63 234 273 134 126 124 135 345 63 75 43 352 69 352 11 61 344 41 56 34 26 26 64 85 117 120 118 123 130 121
328 320 249 271 223 146 154 155 120 63 79 78 141 219 238 252 271 205 274 282 348 27 94 95 230 75 335 78 334 325 329 58 324 31 48 351 179 267 56 329 307 165 299 109 138 258 108 2 303 223 213 147 103 61 18 330 22 124 185 311 89 329 19 325 85 37 78 56 139 0 143 109 6 57 21 57 60 66 45 36 64 74 86 96 95 110 121 115
267 16 1 327 94 143 150 129 74 78 60 55 275 15 275 238 264 294 289 280 250 130 79 183 139 301 121 49 261 307 335 20 307 12 67 309 55 285 75 201 292 338 286 104 81 212 81 123 300 300 155 166 98 97 185 285 337 305 47 35 83 89 146 73 188 158 110 130 106 30 24 27 351 16 20 56 11 2 14 47 58 78 94 99 106 116 124 122
22 30 308 346 117 111 129 89 58 42 70 69 217 210 232 282 280 282 278 243 350 53 132 144 153 95 32 167 123 343 299 352 358 301 101 232 269 286 334 125 245 315 1 159 196 143 295 131 296 273 330 51 275 171 196 175 202 282 26 328 8 7 179 114 36 80 143 151 133 144 49 339 314 347 354 65 354 352 7 66 63 71 81 91 103 118 121 123
299 97 267 155 134 126 77 48 48 72 145 257 161 253 288 260 310 306 316 20 105 122 139 138 159 122 204 57 355 265 299 334 341 5 298 312 148 344 296 8 329 317 345 15 29 337 63 1 240 300 7 14 251 235 177 186 188 171 162 195 169 142 107 70 311 343 86 101 161 122 116 291 279 32 321 315 338 339 9 48 70 70 72 79 84 91 108 117
48 24 291 206 171 98 81 14 292 208 121 248 267 239 289 305 292 305 314 339 107 109 107 111 71 121 70 95 183 305 1 343 313 46 296 176 280 165 273 329 332 314 49 26 258 254 148 168 84 310 216 241 242 56 184 182 187 202 142 215 153 128 95 97 125 220 56 54 92 74 113 312 246 275 291 337 29 43 10 46 79 69 68 70 73 80 84 98
44 220 249 178 223 89 69 1 305 21 256 241 265 261 274 282 278 316 14 358 22 5 62 60 152 92 287 116 164 127 19 277 6 298 253 273 272 231 274 312 314 336 84 318 9 294 79 46 10 300 314 298 320 344 76 102 96 36 334 59 103 176 189 166 166 168 113 120 54 13 55 281 300 336 350 1 62 57 351 43 84 75 70 66 69 75 88 89
254 274 317 310 171 97 81 322 313 308 293 299 357 296 301 263 356 22 27 10 26 342 55 50 32 83 160 126 105 129 266 52 306 23 328 301 300 271 313 305 317 313 48 249 106 282 43 308 108 7 359 339 342 352 357 351 45 58 287 284 216 203 103 131 106 64 82 265 153 108 131 253 292 0 27 27 81 107 93 61 71 84 69 68 69 70 75 76
289 259 246 291 354 73 198 190 134 266 291 305 327 338 343 348 351 56 54 24 350 19 64 37 116 120 48 130 112 26 312 141 267 288 217 246 263 295 291 291 318 324 270 199 281 17 85 269 78 94 94 54 358 3 299 314 318 304 342 334 326 123 122 101 118 22 90 323 75 91 123 228 265 339 38 72 89 113 116 92 73 76 84 82 77 77 75 73
16 21 302 344 3 27 305 224 182 192 259 352 14 293 332 340 335 34 10 61 17 14 61 102 53 81 61 42 31 4 330 287 136 267 339 305 295 311 272 323 326 309 309 40 0 79 122 62 100 151 151 176 209 222 251 198 26 31 310 336 323 76 93 102 106 83 124 174 73 346 129 137 166 226 160 131 140 118 113 105 101 95 84 77 80 79 81 79
38 94 339 334 330 23 269 334 19 29 313 168 18 283 340 347 317 4 356 42 349 36 28 51 31 51 335 61 340 332 265 320 331 18 273 286 257 257 307 299 318 342 3 44 357 77 59 46 306 133 183 195 196 191 272 32 115 302 352 332 320 25 90 97 125 157 162 102 41 358 145 132 158 165 164 153 152 119 114 112 108 104 105 106 104 100 93 86
45 274 84 205 165 260 16 317 356 324 301 163 257 20 338 359 10 17 323 354 345 37 49 337 29 34 232 170 126 28 317 337 4 299 311 277 329 318 331 338 57 6 15 12 13 100 133 101 283 76 356 25 59 112 120 92 71 23 307 326 350 40 98 102 96 146 138 136 156 169 156 136 148 152 155 187 161 135 129 130 130 126 119 111 103 99 95 93
131 275 248 333 60 268 194 253 302 281 305 263 247 342 7 30 5 309 346 321 12 3 60 51 326 328 323 275 116 213 312 34 323 298 246 292 337 335 338 336 341 27 22 7 354 99 82 65 263 95 90 20 358 84 103 91 85 31 346 347 17 68 71 90 93 79 114 103 126 144 141 139 153 150 158 176 157 121 124 127 131 132 133 127 112 100 98 93
343 56 309 352 329 279 268 287 274 1 353 301 97 277 159 253 336 316 345 59 21 310 7 96 277 287 299 275 92 136 218 187 205 256 262 213 315 29 275 214 262 323 31 15 336 331 101 291 174 53 68 350 354 352 63 83 75 34 338 23 46 71 74 92 105 101 90 88 112 124 128 126 73 137 132 142 143 121 125 137 141 141 134 119 112 111 108 104
282 198 177 344 342 277 309 337 342 348 6 328 83 283 83 292 206 234 335 32 91 35 32 289 273 298 339 64 116 265 238 210 202 213 228 196 254 227 128 277 179 302 350 2 24 328 69 275 54 63 75 318 338 7 76 93 105 136 5 12 15 77 95 111 118 165 122 138 131 121 130 148 163 143 126 143 153 143 147 146 140 133 118 116 114 106 98 92
339 298 355 140 266 303 357 302 308 54 34 230 161 233 178 267 307 72 30 321 34 69 1 335 326 47 317 11 305 258 263 225 236 237 236 240 230 258 210 238 192 190 219 178 200 82 39 87 40 54 71 267 292 87 9 53 57 26 320 313 330 288 108 87 54 25 141 139 136 154 182 166 155 156 135 143 150 153 138 134 113 96 98 103 102 102 101 97